Regional Weather Roundup
Issued by NWS

Home | Current Version | Previous Version | Text Only | Print | Product List | Glossary Off
Versions: 1 2 3 4 5 6 7 8 9 10 11 12 13 14 15 16 17 18 19 20 21 22 23 24 25 26 27 28 29 30 31 32 33 34 35 36 37 38 39 40 41 42 43 44 45 46 47 48 49 50

000
ASUS45 KSLC 262110
RWRUT

UTAH REGIONAL WEATHER ROUNDUP
NATIONAL WEATHER SERVICE SALT LAKE CITY UT
200 PM MST THU FEB 26 2015

UTZ001>011-023>025-262200-

NORTHERN UTAH

CITY           SKY/WX    TMP DP  RH WIND       PRES   REMARKS
BRIGHAM CITY   CLOUDY    37  30  75 CALM      29.94F
HILL AFB       MIX PCPN  36  32  87 W3        29.92F
LOGAN          CLOUDY    38  28  67 VRB3      29.93F
OGDEN          CLOUDY    39  30  70 CALM      29.92F
PROVO AIRPORT  PTSUNNY   37  28  70 SW3       29.93F
SALT LAKE CITY FLURRIES  36  33  89 NW8       29.93F WCI  30
VERNAL         CLOUDY    37  15  40 SW5       29.89F WCI  33
WENDOVER       PTSUNNY   39  30  70 N17G31    29.96R WCI  30
HEBER CITY     CLOUDY    36  28  75 N8        29.87F WCI  29
WEST JORDAN    CLOUDY    36  36 100 N7        29.94F WCI  30

$$

UTZ012>022-026-027-262200-

SOUTHERN/CENTRAL UTAH

CITY           SKY/WX    TMP DP  RH WIND       PRES   REMARKS
BLANDING       CLOUDY    36  20  53 SW3       29.98F
BRYCE CANYON   CLOUDY    34  20  56 NW20      29.87F WCI  23
CEDAR CITY     CLOUDY    42  23  46 W3G18     29.88F
DELTA          CLOUDY    42  26  53 N9        29.92F
HANKSVILLE     CLOUDY    41  27  56 NE5       29.92F
MILFORD        PTSUNNY   48  21  34 N15G21    29.88F
MOAB/CYNLANDS  CLOUDY    45  14  28 NE3       29.87F
PRICE          CLOUDY    40  17  39 SE8       29.87F WCI  34
ST GEORGE        N/A     55  30  38 W6        29.86F
KANAB            N/A     48  30  49 S8        29.87F

$$

REGIONAL REPORTS     COLORADO/ARIZONA

CITY           SKY/WX    TMP DP  RH WIND       PRES   REMARKS
CRAIG, CO      CLOUDY    29  20  69 CALM      29.92F
GRAND JUNCTION CLOUDY    40  17  39 CALM      29.89F
RIFLE          CLOUDY    39   7  26 VRB3      29.88F
MONTROSE       CLOUDY    32  17  54 CALM      29.91F
CORTEZ         MOSUNNY   39  25  57 SW9       29.90F WCI  33
PAGE, AZ       PTSUNNY   53  28  38 E7        29.82F
GRAND CANYON   CLOUDY    46  20  35 W17G25    29.88F
KINGMAN        PTSUNNY   62  21  20 VRB3      29.87F
FLAGSTAFF      CLOUDY    42  17  36 SW25G36   29.91F

$$

REGIONAL REPORTS    NEVADA/IDAHO/WYOMING

CITY           SKY/WX    TMP DP  RH WIND       PRES   REMARKS
LAS VEGAS, NV    N/A     67  21  17 S12       29.79F
ELY            CLOUDY    41  17  38 NW18      29.94F
ELKO           CLOUDY    44  24  45 W20G28    29.97F
POCATELLO, ID  MOSUNNY   42  13  30 N9        29.95F
BURLEY         CLOUDY    42  18  37 VRB5      29.96F
EVANSTON, WY   LGT SNOW  27  23  85 E10       29.85F FOG     WCI  17
ROCK SPRINGS   CLOUDY    23  15  71 E14       29.92F WCI  11

$$



USA.gov is the U.S. government's official web portal to all federal, state and local government web resources and services.